Milan, NH

8:10 AM EDT on September 27, 2016 (GMT -0400)
Berlin Municipal

Weather History for KBML - January, 1999

Change the Weather History Date:

Thursday, January 21, 1999

  Actual Average Record
Temperature  
Mean Temperature 27 °F -  
Max Temperature 37 °F 19 °F 55 °F (2006)
Min Temperature 17 °F 0 °F -20 °F (2005)
Degree Days  
Heating Degree Days 38    
Moisture  
Dew Point 20 °F    
Average Humidity 79    
Maximum Humidity 93    
Minimum Humidity 50    
Precipitation  
Precipitation 0.00 in - - ()
Sea Level Pressure  
Sea Level Pressure 30.20 in    
Wind  
Wind Speed 0 mph (North)    
Max Wind Speed 4 mph    
Max Gust Speed -    
Visibility 10 miles    
Events      
Averages and records for this station are not official NWS values.
T = Trace of Precipitation, MM = Missing Value Source: NWS Daily Summary

Daily Weather History Graph

Daily Weather History Graph

Search for Another Location

Airport or City:

Trip Planner

Search our weather history database for the weather conditions in past years. The results will help you decide how hot, cold, wet, or windy it might be!

Date:

Astronomy

Jan. 21, 1999 Rise Set
Actual Time 7:14 AM EST 4:38 PM EST
Civil Twilight 6:42 AM EST 5:10 PM EST
Nautical Twilight 6:06 AM EST 5:45 PM EST
Astronomical Twilight 5:32 AM EST 6:20 PM EST
Moon 9:34 AM EST (1/21) 9:15 PM EST (1/21)
Length of Visible Light 10h 27m
Length of Day
9h 23m
Waxing Crescent, 18% of the Moon is Illuminated
Jan 21
Waxing Crescent
Jan 24
First Quarter
Jan 31
Full
Feb 8
Last Quarter
Feb 16
New

Hourly Weather History & Observations

Time (EST) Temp. Windchill Dew Point Humidity Pressure Visibility Wind Dir Wind Speed Gust Speed Precip Events Conditions
12:52 AM 23.0 °F - 19.0 °F 85% 30.11 in 10.0 mi Calm Calm - N/A   Overcast
1:52 AM 24.1 °F - 19.9 °F 84% 30.13 in 10.0 mi Calm Calm - N/A   Overcast
2:52 AM 24.1 °F - 18.0 °F 77% 30.13 in 10.0 mi Calm Calm - N/A   Overcast
3:52 AM 23.0 °F - 18.0 °F 81% 30.14 in 10.0 mi Calm Calm - N/A   Scattered Clouds
4:42 AM 24.8 °F - 17.6 °F 74% 30.08 in 10.0 mi Calm Calm - N/A   Overcast
4:52 AM 21.0 °F 16.2 °F 18.0 °F 88% 30.14 in 10.0 mi ENE 3.5 mph - N/A   Overcast
5:16 AM 19.4 °F - 17.6 °F 93% 30.09 in 10.0 mi Calm Calm - N/A   Scattered Clouds
5:52 AM 19.9 °F - 17.1 °F 89% 30.17 in 10.0 mi Calm Calm - N/A   Scattered Clouds
6:52 AM 18.0 °F - 15.1 °F 88% 30.19 in 10.0 mi Calm Calm - N/A   Mostly Cloudy
7:52 AM 17.1 °F - 14.0 °F 88% 30.21 in 10.0 mi Calm Calm - N/A   Mostly Cloudy
8:52 AM 21.0 °F - 17.1 °F 85% 30.22 in 10.0 mi Calm Calm - N/A   Partly Cloudy
9:52 AM 27.0 °F - 19.0 °F 72% 30.22 in 10.0 mi Calm Calm - N/A   Clear
10:52 AM 32.0 °F - 19.0 °F 59% 30.21 in 10.0 mi Calm Calm - N/A   Partly Cloudy
12:52 PM 35.1 °F - 19.0 °F 52% 30.18 in 10.0 mi Calm Calm - N/A   Partly Cloudy
1:52 PM 37.0 °F - 19.9 °F 50% 30.17 in 10.0 mi Calm Calm - N/A   Mostly Cloudy
2:52 PM 36.0 °F - 23.0 °F 59% 30.19 in 10.0 mi Calm Calm - N/A   Mostly Cloudy
3:52 PM 36.0 °F 33.3 °F 21.0 °F 55% 30.20 in 10.0 mi WNW 3.5 mph - N/A   Clear
4:52 PM 28.0 °F - 23.0 °F 81% 30.22 in 10.0 mi Calm Calm - N/A   Scattered Clouds
5:52 PM 28.0 °F - 24.1 °F 85% 30.24 in 10.0 mi Calm Calm - N/A   Mostly Cloudy
6:52 PM 28.0 °F - 24.1 °F 85% 30.25 in 10.0 mi Calm Calm - N/A   Overcast
7:52 PM 28.0 °F - 24.1 °F 85% 30.27 in 10.0 mi Calm Calm - N/A   Overcast
8:52 PM 26.1 °F - 23.0 °F 88% 30.27 in 10.0 mi Calm Calm - N/A   Mostly Cloudy
9:52 PM 25.0 °F - 21.9 °F 88% 30.29 in 9.0 mi Calm Calm - N/A   Mostly Cloudy
10:52 PM 24.1 °F - 21.0 °F 88% 30.30 in 8.0 mi Calm Calm - N/A   Mostly Cloudy
11:52 PM 23.0 °F - 21.0 °F 92% 30.30 in 8.0 mi Calm Calm - N/A   Overcast